Montreal Mirabel, Quebec

9:27 AM EDT on July 27, 2017 (GMT -0400)
Montreal Mirabel

Weather History for CYMX - December, 2011

Change the Weather History Date:

Saturday, December 31, 2011

  Actual Average Record
Temperature  
Mean Temperature 22 °F -  
Max Temperature 28 °F 21 °F 46 °F (2004)
Min Temperature 15 °F 7 °F -18 °F (1998)
Degree Days  
Heating Degree Days 44    
Moisture  
Dew Point 20 °F    
Average Humidity 87    
Maximum Humidity 93    
Minimum Humidity 68    
Precipitation  
Precipitation 0.00 in - - ()
Sea Level Pressure  
Sea Level Pressure 29.96 in    
Wind  
Wind Speed 6 mph ()    
Max Wind Speed 12 mph    
Max Gust Speed 18 mph    
Visibility 9.9 miles    
Events Rain , Snow    
Averages and records for this station are not official NWS values.
T = Trace of Precipitation, MM = Missing Value Source: Averaged Metar Reports

Daily Weather History Graph

Daily Weather History Graph

Search for Another Location

Airport or City:

Trip Planner

Search our weather history database for the weather conditions in past years. The results will help you decide how hot, cold, wet, or windy it might be!

Date:

Astronomy

Dec. 31, 2011 Rise Set
Actual Time 7:36 AM EST 4:21 PM EST
Civil Twilight 7:02 AM EST 4:55 PM EST
Nautical Twilight 6:24 AM EST 5:33 PM EST
Astronomical Twilight 5:48 AM EST 6:09 PM EST
Moon 10:57 AM EST (12/31) No Moon Set
Length of Visible Light 9h 53m
Length of Day
8h 44m
Waxing Crescent, 45% of the Moon is Illuminated
Dec 31
Waxing Crescent
Jan 1
First Quarter
Jan 9
Full
Jan 16
Last Quarter
Jan 23
New

Hourly Weather History & Observations

Time (EST) Temp. Windchill Dew Point Humidity Pressure Visibility Wind Dir Wind Speed Gust Speed Precip Events Conditions
12:00 AM 17.6 °F 7.3 °F 8.6 °F 68% 30.04 in 25.0 mi NE 8.1 mph - N/A   Overcast
12:08 AM 17.6 °F 8.2 °F 10.4 °F 73% - 5.0 mi NE 6.9 mph - N/A Snow Light Snow
1:00 AM 15.8 °F 5.1 °F 12.2 °F 86% 30.02 in 15.0 mi NE 8.1 mph - N/A Snow Light Snow
2:00 AM 17.6 °F 7.3 °F 14.0 °F 86% 30.00 in 15.0 mi NE 8.1 mph - N/A Snow Light Snow
2:12 AM 17.6 °F 7.3 °F 14.0 °F 86% - 15.0 mi NE 8.1 mph - N/A   Light Ice Pellets
3:00 AM 17.6 °F 8.2 °F 14.0 °F 86% 29.97 in 15.0 mi NE 6.9 mph - N/A   Light Ice Pellets
3:38 AM 19.4 °F 7.2 °F 15.8 °F 86% - 15.0 mi NE 11.5 mph - N/A Rain Light Freezing Rain
3:54 AM 19.4 °F 8.6 °F 15.8 °F 86% - 25.0 mi NE 9.2 mph 17.3 mph N/A   Overcast
4:00 AM 19.4 °F 9.5 °F 15.8 °F 86% 29.96 in 25.0 mi NE 8.1 mph 17.3 mph N/A   Overcast
5:00 AM 19.4 °F 8.6 °F 15.8 °F 86% 29.92 in 25.0 mi NE 9.2 mph 18.4 mph N/A   Overcast
6:00 AM 21.2 °F 10.9 °F 17.6 °F 86% 29.91 in 20.0 mi ENE 9.2 mph - N/A   Overcast
7:00 AM 21.2 °F 10.1 °F 17.6 °F 86% 29.91 in 20.0 mi ENE 10.4 mph - N/A   Overcast
8:00 AM 23.0 °F 13.9 °F 19.4 °F 86% 29.93 in 10.0 mi NE 8.1 mph - N/A   Overcast
9:00 AM 23.0 °F 15.8 °F 21.2 °F 93% 29.94 in 8.0 mi NE 5.8 mph - N/A   Overcast
9:15 AM 24.8 °F 16.9 °F 21.2 °F 86% - 8.0 mi NE 6.9 mph - N/A Snow Light Snow
9:49 AM 24.8 °F 17.9 °F 21.2 °F 86% - 2.5 mi NE 5.8 mph - N/A Snow Light Snow
10:00 AM 24.8 °F 19.1 °F 21.2 °F 86% 29.94 in 2.5 mi NE 4.6 mph - N/A Snow Light Snow
10:44 AM 24.8 °F 17.9 °F 23.0 °F 93% - 4.0 mi ENE 5.8 mph - N/A Rain , Snow Light Snow
11:00 AM 24.8 °F 19.1 °F 23.0 °F 93% 29.92 in 5.0 mi NE 4.6 mph - N/A Rain , Snow Light Snow
11:25 AM 24.8 °F 19.1 °F 23.0 °F 93% - 5.0 mi NE 4.6 mph - N/A Snow Light Snow
12:00 PM 24.8 °F 16.9 °F 23.0 °F 93% 29.90 in 5.0 mi NE 6.9 mph - N/A Snow Light Snow
1:00 PM 26.6 °F 20.0 °F 23.0 °F 86% 29.88 in 7.0 mi NE 5.8 mph - N/A Snow Light Snow
2:00 PM 26.6 °F 20.0 °F 23.0 °F 86% 29.89 in 6.0 mi ENE 5.8 mph - N/A   Overcast
3:00 PM 26.6 °F 20.0 °F 23.0 °F 86% 29.91 in 6.0 mi ENE 5.8 mph - N/A   Overcast
4:00 PM 26.6 °F 20.0 °F 23.0 °F 86% 29.94 in 6.0 mi NE 5.8 mph - N/A   Overcast
5:00 PM 26.6 °F - 24.8 °F 93% 29.95 in 8.0 mi NE 2.3 mph - N/A   Overcast
6:00 PM 26.6 °F - 24.8 °F 93% 29.95 in 10.0 mi NE 2.3 mph - N/A   Overcast
7:00 PM 28.4 °F - 24.8 °F 86% 29.98 in 15.0 mi SSW 2.3 mph - N/A   Overcast
8:00 PM 28.4 °F - 24.8 °F 86% 29.99 in 20.0 mi SSW 2.3 mph - N/A   Overcast
9:00 PM 28.4 °F - 24.8 °F 86% 30.02 in 15.0 mi WNW 2.3 mph - N/A   Overcast
9:26 PM 28.4 °F 24.6 °F 24.8 °F 86% - 10.0 mi SW 3.5 mph - N/A Snow Light Snow
10:00 PM 28.4 °F 23.3 °F 26.6 °F 93% 30.03 in 10.0 mi South 4.6 mph - N/A Snow Light Snow
11:00 PM 28.4 °F 22.2 °F 26.6 °F 93% 30.04 in 10.0 mi SW 5.8 mph - N/A Snow Light Snow
11:31 PM 28.4 °F 22.2 °F 26.6 °F 93% - 5.0 mi South 5.8 mph - N/A   Overcast